Location: Castelbiague
(43.0361°N, 0.9246°E)
Time: 21:18:40
(UTC+00:00)

USA 215 - Pass Details

Date: 18 October 2021
Orbit: 1099 x 1109 km, 123.0° (Epoch: 20 November)

Event Time Altitude Azimuth Distance (km) Brightness Sun altitude
Exits shadow 20:00:39 25° 20° (NNE) 2,057 4.6 -31.9°
Maximum altitude 20:01:43 26° 5° (N) 2,008 4.7 -32.1°
Drops below altitude 10° 20:06:55 10° 312° (NW) 2,966 6.2 -33.0°
Sets 20:09:49 0° 300° (WNW) 3,925 7.2 -33.5°
